Retour au catalogue

STARLINK-2454

ActifCommunicationsVLEO
NORAD 48116·PAYLOAD·🇺🇸 United States

Lancé Apr 7, 2021 depuis Cape Canaveral Space Force Station

Loading…

Prochains Passages (prochaines 24 heures)

TLE

FraisSource: CelesTrak SupGP

Époque: Sep 15, 2026, 02:39 UTC

1 48116C 21027AA  26258.11090278  .00037682  00000+0  12115-2 0  2588
2 48116  53.1599   4.3263 0001191  74.5464  86.5398 15.31690612    18

Suivez STARLINK-2454 en temps réel avec AllMySat

Download on the App Store